GW3846 Weather Reports


time (UTC)temp
F
wind
direction
speed
knots
gust
knots
rain 1hr
in
rain 24hr
in
rain mn
in
humidity
%
barometer
mb
20260504034028 43 286 0.0 0.0 0.00 0.00 0.00 73 1010.3
20260504033508 42 286 0.0 0.0 0.00 0.00 0.00 73 1010.3
20260504033026 42 286 0.0 0.0 0.00 0.00 0.00 73 1010.2
20260504032600 42 286 0.0 0.0 0.00 0.00 0.00 73 1010.1
20260504032502 42 286 0.0 0.0 0.00 0.00 0.00 73 1010.2
20260504032021 42 286 0.0 0.0 0.00 0.00 0.00 74 1010.0
20260504031541 42 286 0.0 0.0 0.00 0.00 0.00 73 1010.1
20260504031019 42 286 0.0 0.0 0.00 0.00 0.00 73 1009.9
20260504030540 42 286 0.0 0.0 0.00 0.00 0.00 72 1009.9
20260504030025 42 286 0.0 0.0 0.00 0.00 0.00 71 1009.9
20260504025536 42 286 0.0 0.9 0.00 0.00 0.00 71 1009.8
20260504025012 42 286 0.0 0.9 0.00 0.00 0.00 70 1009.9
20260504024532 43 286 0.0 0.0 0.00 0.00 0.00 69 1009.8
20260504024008 43 286 0.0 0.0 0.00 0.00 0.00 68 1009.7
20260504023529 43 286 0.0 0.0 0.00 0.00 0.00 67 1009.8
20260504023008 44 286 0.0 0.0 0.00 0.00 0.00 66 1009.7
20260504022527 44 286 0.0 0.0 0.00 0.00 0.00 65 1009.7
20260504022005 44 286 0.0 0.0 0.00 0.00 0.00 65 1009.7
20260504021533 45 286 0.0 0.0 0.00 0.00 0.00 64 1009.8
20260504021010 45 286 0.0 0.9 0.00 0.00 0.00 63 1009.7
20260504020530 45 286 0.0 1.7 0.00 0.00 0.00 63 1009.9
20260504020046 45 286 0.0 1.7 0.00 0.00 0.00 62 1009.8
20260504015530 45 286 0.0 0.0 0.00 0.00 0.00 62 1009.8
20260504015047 46 286 0.0 0.0 0.00 0.00 0.00 62 1009.8
20260504014530 46 286 0.0 0.9 0.00 0.00 0.00 60 1009.6
20260504014009 47 286 0.0 0.9 0.00 0.00 0.00 59 1009.5
20260504013532 47 286 0.0 0.0 0.00 0.00 0.00 58 1009.6
20260504013004 47 286 0.0 0.0 0.00 0.00 0.00 58 1009.7
20260504012522 47 286 0.0 0.0 0.00 0.00 0.00 57 1009.7
20260504012056 48 286 0.0 1.7 0.00 0.00 0.00 56 1009.7
20260504011518 48 286 0.0 1.7 0.00 0.00 0.00 56 1009.7
20260504011049 48 286 0.0 0.9 0.00 0.00 0.00 56 1009.7
20260504010510 48 286 0.0 1.7 0.00 0.00 0.00 55 1009.6
20260504010050 48 286 0.0 1.7 0.00 0.00 0.00 54 1009.5
20260504005510 49 294 0.0 1.7 0.00 0.00 0.00 53 1009.6
20260504005040 49 294 0.0 0.9 0.00 0.00 0.00 53 1009.5
20260504004555 49 294 0.0 2.6 0.00 0.00 0.00 52 1009.4
20260504004037 50 294 0.0 2.6 0.00 0.00 0.00 52 1009.4
20260504003554 50 328 0.0 5.2 0.00 0.00 0.00 51 1009.4
20260504003045 50 323 0.0 7.8 0.00 0.00 0.00 52 1009.3
20260504002551 50 342 0.9 6.1 0.00 0.00 0.00 50 1009.2
20260504002034 50 355 0.9 4.3 0.00 0.00 0.00 50 1009.2
20260504001551 50 325 0.9 7.8 0.00 0.00 0.00 49 1009.1
20260504001016 50 292 2.6 7.8 0.00 0.00 0.00 48 1009.1
20260504000549 50 298 0.9 5.2 0.00 0.00 0.00 48 1009.2
20260504000032 51 355 1.7 2.6 0.00 0.00 0.00 47 1009.1
20260503235549 51 292 0.0 6.1 0.00 0.00 0.00 46 1009.0
20260503235033 51 325 1.7 6.1 0.00 0.00 0.00 45 1009.0
20260503234549 51 284 0.9 7.0 0.00 0.00 0.00 45 1008.9
20260503234024 52 323 1.7 7.0 0.00 0.00 0.00 45 1008.8
20260503233545 52 321 1.7 6.1 0.00 0.00 0.00 45 1008.8
20260503233019 52 294 0.9 7.8 0.00 0.00 0.00 43 1008.7
20260503232536 52 333 2.6 10.4 0.00 0.00 0.00 43 1008.7
20260503232014 52 340 2.6 10.4 0.00 0.00 0.00 42 1008.7
20260503231532 52 325 1.7 7.0 0.00 0.00 0.00 42 1008.7
20260503231013 53 293 1.7 7.8 0.00 0.00 0.00 40 1008.7
20260503230527 53 18 1.7 7.8 0.00 0.00 0.00 41 1008.6
20260503230100 53 301 2.6 7.0 0.00 0.00 0.00 40 1008.6
20260503225520 54 355 1.7 7.8 0.00 0.00 0.00 40 1008.5
20260503225037 54 341 1.7 7.8 0.00 0.00 0.00 40 1008.4
20260503224514 54 360 1.7 5.2 0.00 0.00 0.00 41 1008.3
20260503224034 54 338 1.7 5.2 0.00 0.00 0.00 38 1008.3
20260503223521 55 310 1.7 8.7 0.00 0.00 0.00 37 1008.2
20260503223052 55 336 2.6 12.2 0.00 0.00 0.00 37 1008.0
20260503222513 55 300 1.7 4.3 0.00 0.00 0.00 37 1008.2
20260503222047 55 344 1.7 12.2 0.00 0.00 0.00 36 1008.1
20260503221510 55 18 1.7 13.0 0.00 0.00 0.00 37 1008.1
20260503221048 56 320 4.3 13.0 0.00 0.00 0.00 35 1008.2
20260503220531 56 279 3.5 9.6 0.00 0.00 0.00 37 1008.0
20260503220055 56 317 2.6 7.8 0.00 0.00 0.00 36 1008.1
20260503215530 56 345 2.6 11.3 0.00 0.00 0.00 36 1008.0
20260503215009 56 302 3.5 12.2 0.00 0.00 0.00 34 1008.0
20260503214531 56 287 4.3 12.2 0.00 0.00 0.00 35 1007.9
20260503214009 56 5 0.9 6.1 0.00 0.00 0.00 35 1007.9
20260503213529 56 298 1.7 6.1 0.00 0.00 0.00 35 1007.9
20260503213014 55 335 0.9 7.0 0.00 0.00 0.00 36 1008.1
20260503212544 55 296 2.6 13.0 0.00 0.00 0.00 34 1008.0
20260503212024 56 277 4.3 13.0 0.00 0.00 0.00 34 1008.0
20260503211539 56 345 2.6 10.4 0.00 0.00 0.00 35 1008.1
20260503211020 56 334 2.6 10.4 0.00 0.00 0.00 36 1008.1
20260503210535 56 298 3.5 9.6 0.00 0.00 0.00 36 1008.0
20260503210011 56 292 1.7 12.2 0.00 0.00 0.00 35 1008.1
20260503205534 56 300 4.3 12.2 0.00 0.00 0.00 33 1008.1
20260503205005 56 262 3.5 10.4 0.00 0.00 0.00 35 1008.1
20260503204543 56 300 0.9 10.4 0.00 0.00 0.00 39 1008.1
20260503204100 55 289 2.6 13.0 0.00 0.00 0.00 37 1008.3
20260503203521 55 255 2.6 9.6 0.00 0.00 0.00 41 1008.3
20260503203102 55 335 4.3 9.6 0.00 0.00 0.00 33 1008.3
20260503202537 56 339 2.6 10.4 0.00 0.00 0.00 37 1008.3
20260503202049 56 301 1.7 13.9 0.00 0.00 0.00 36 1008.2
20260503201534 55 326 2.6 13.9 0.00 0.00 0.00 38 1008.3
20260503201048 55 301 2.6 13.9 0.00 0.00 0.00 40 1008.3
20260503200530 55 5 2.6 10.4 0.00 0.00 0.00 35 1008.2
20260503200049 55 324 4.3 8.7 0.00 0.00 0.00 37 1008.4
20260503195527 55 307 2.6 8.7 0.00 0.00 0.00 37 1008.4
20260503195045 54 339 4.3 9.6 0.00 0.00 0.00 41 1008.5
20260503194525 55 285 3.5 9.6 0.00 0.00 0.00 37 1008.5
20260503194004 55 322 2.6 11.3 0.00 0.00 0.00 40 1008.6
20260503193524 54 281 3.5 11.3 0.00 0.00 0.00 39 1008.6
20260503193106 54 284 3.5 9.6 0.00 0.00 0.00 37 1008.7
20260503192535 54 331 1.7 8.7 0.00 0.00 0.00 44 1008.8
20260503192048 54 348 2.6 11.3 0.00 0.00 0.00 42 1008.9
20260503191525 54 296 4.3 11.3 0.00 0.00 0.00 43 1008.9
20260503191059 53 300 2.6 8.7 0.00 0.00 0.00 40 1008.9
20260503191004 53 263 1.7 8.7 0.00 0.00 0.00 43 1009.0
20260503190531 53 326 1.7 8.7 0.00 0.00 0.00 45 1009.1
20260503190007 52 318 2.6 8.7 0.00 0.00 0.00 42 1009.2
20260503185543 52 343 1.7 9.6 0.00 0.00 0.00 45 1009.3
20260503185019 52 325 2.6 9.6 0.00 0.00 0.00 42 1009.4
20260503184542 52 300 0.9 8.7 0.00 0.00 0.00 45 1009.5
20260503184013 52 5 2.6 10.4 0.00 0.00 0.00 43 1009.6
20260503183533 51 293 2.6 10.4 0.00 0.00 0.00 42 1009.6
20260503183013 52 327 1.7 9.6 0.00 0.00 0.00 44 1009.8
20260503182549 52 360 1.7 10.4 0.00 0.00 0.00 46 1009.7
20260503182009 52 301 1.7 11.3 0.00 0.00 0.00 46 1009.7
20260503181545 51 360 1.7 11.3 0.00 0.00 0.00 49 1009.8
20260503181025 50 270 1.7 10.4 0.00 0.00 0.00 51 1010.0
20260503180554 50 20 2.6 10.4 0.00 0.00 0.00 45 1010.1
20260503180037 50 349 3.5 8.7 0.00 0.00 0.00 45 1009.9
20260503175503 50 348 1.7 7.0 0.00 0.00 0.00 47 1009.9
20260503175043 50 296 1.7 7.0 0.00 0.00 0.00 46 1010.0
20260503174559 50 338 1.7 7.0 0.00 0.00 0.00 48 1010.1
20260503174501 50 348 1.7 7.0 0.00 0.00 0.00 48 1010.1
20260503174039 49 11 0.9 7.0 0.00 0.00 0.00 50 1010.1
20260503173517 49 328 1.7 9.6 0.00 0.00 0.00 47 1010.0
20260503173033 49 355 1.7 9.6 0.00 0.00 0.00 47 1010.2
20260503172515 49 340 2.6 10.4 0.00 0.00 0.00 46 1010.2
20260503172049 48 342 2.6 10.4 0.00 0.00 0.00 49 1010.3
20260503171510 48 343 0.9 7.0 0.00 0.00 0.00 51 1010.3
20260503171039 47 292 2.6 7.0 0.00 0.00 0.00 51 1010.4
20260503170553 47 360 1.7 5.2 0.00 0.00 0.00 52 1010.5
20260503150541 45 285 1.7 13.0 0.00 0.00 0.00 60 1011.0
20260503131018 44 332 0.9 4.3 0.00 0.00 0.00 68 1011.3
20260503130552 44 295 0.9 7.8 0.00 0.00 0.00 71 1011.4
20260503110546 38 290 1.7 6.1 0.00 0.00 0.00 80 1010.9
20260503081512 36 290 0.0 2.6 0.00 0.01 0.00 85 1010.8
20260503081046 36 296 0.0 1.7 0.00 0.01 0.00 84 1010.8
20260503080522 36 275 0.0 0.9 0.00 0.01 0.00 84 1010.9
20260503072512 36 284 0.0 0.0 0.00 0.01 0.00 82 1011.0
20260503072050 36 284 0.0 0.0 0.00 0.01 0.00 82 1011.0
20260503071511 36 284 0.0 1.7 0.00 0.01 0.00 82 1011.0
20260503071043 36 284 0.0 1.7 0.00 0.01 0.00 82 1011.0
20260503070602 36 279 0.0 1.7 0.00 0.01 0.00 82 1011.0
20260503055010 37 290 0.9 6.1 0.00 0.01 0.00 78 1011.7
20260503054551 37 277 1.7 5.2 0.00 0.01 0.00 78 1011.8
20260503054102 37 280 1.7 4.3 0.00 0.01 0.00 78 1011.7
20260503054006 37 275 0.9 4.3 0.00 0.01 0.00 78 1011.8
20260503053540 37 270 0.9 4.3 0.00 0.01 0.00 78 1011.8
20260503053054 37 273 0.9 4.3 0.00 0.01 0.00 78 1011.8
20260503052534 37 269 0.9 3.5 0.00 0.01 0.00 78 1011.9
20260503052048 37 283 0.9 3.5 0.00 0.01 0.00 79 1011.9
20260503051533 37 291 0.0 3.5 0.00 0.01 0.00 79 1011.9
20260503051045 37 257 1.7 3.5 0.00 0.01 0.00 79 1012.0
20260503050527 37 277 0.9 3.5 0.00 0.01 0.00 79 1012.0
20260503050042 37 282 0.9 2.6 0.00 0.04 0.00 79 1012.0
20260503045520 37 275 0.0 1.7 0.00 0.04 0.00 80 1012.0
20260503045038 37 266 0.0 2.6 0.00 0.04 0.00 80 1012.0
20260503044515 37 290 0.9 2.6 0.00 0.04 0.00 80 1012.1
20260503044034 37 263 0.0 1.7 0.00 0.04 0.00 81 1012.2
20260503043510 36 263 0.0 2.6 0.00 0.04 0.00 81 1012.2
20260503043027 36 280 0.0 3.5 0.00 0.04 0.00 81 1012.2
20260503042505 36 289 0.0 3.5 0.00 0.04 0.00 81 1012.2
20260503042025 36 277 0.0 1.7 0.00 0.04 0.00 81 1012.2
20260503041600 36 279 0.0 3.5 0.00 0.04 0.00 81 1012.2
20260503041506 36 279 0.0 3.5 0.00 0.04 0.00 81 1012.4
20260503041040 37 279 0.0 1.7 0.00 0.04 0.00 81 1012.3
20260503040520 37 275 0.0 1.7 0.00 0.04 0.00 80 1012.2
20260503040050 37 275 0.0 0.9 0.00 0.04 0.04 80 1012.3
20260503035511 37 275 0.0 0.9 0.00 0.04 0.04 80 1012.3
20260503035047 37 275 0.0 2.6 0.00 0.04 0.04 79 1012.3
20260503034557 37 275 0.0 2.6 0.00 0.04 0.04 79 1012.3